Terug naar catalogus

STARLINK-31920

ActiefCommunicatieVLEO
NORAD 59907·PAYLOAD·🇺🇸 United States

Gelanceerd May 28, 2024 vanaf Cape Canaveral Space Force Station

Loading…

Volgende Passages (komende 24 uur)

TLE

VersSource: CelesTrak SupGP

Epoch: Sep 14, 2026, 23:01 UTC

1 59907C 24100Y   26257.95951389  .00146010  00000+0  94195-3 0  2577
2 59907  42.9855  57.6107 0029367 307.1162  12.2237 15.74452241    11

Volg STARLINK-31920 in realtime met AllMySat

Download on the App Store